Home > Weather > Scottsdale > Past weeks

Flag for USA Weather for the Past 2 Weeks in Scottsdale, Arizona, USA

Now
80 °F

Clear.


Feels Like: 78 °F
Forecast: 69 / 89 °F
Wind: No wind

Location: Scottsdale Airport

Current Time: May 5, 2016 at 12:20:47 AM

Latest Report: May 4, 2016 at 11:53 PM


Visibility: 10 mi

Pressure: 29.78 "Hg

Humidity: 13%

Dew Point: 25 °F

Location of ScottsdaleLocation

Historic Weather in Scottsdale — Graph

°F

Scottsdale Temperature Yesterday

Maximum temperature yesterday: 100 °F (at 3:53 PM)
Minimum temperature yesterday: 67 °F (at 4:53 AM)
Average temperature yesterday: 86 °F

High & Low Weather Summary for the Past Weeks

 TemperatureHumidityPressure
High100 °F (May 4, 3:53 PM)75% (May 1, 3:53 AM)29.98 "Hg (May 1, 3:53 AM)
Low56 °F (Apr 26, 5:53 AM)3% (Apr 21, 4:53 PM)29.54 "Hg (Apr 30, 2:53 PM)
Average74 °F22%29.78 "Hg
* Reported Apr 19 10:53 PM — May 4 10:53 PM, Scottsdale, Weather by CustomWeather, © 2016

Note: Actual official high and low records may vary slightly from our data, if they occured in-between our weather recording intervals... More about our weather records

Advertising

Scottsdale Weather History for the Previous 24 Hours

Scroll right to see more
 ConditionsComfort  
Time TempWeatherWind HumidityBarometerVisibility
10:53 PM
Wed, May 4
83 °FClear.No wind11%29.78 "Hg10 mi
9:53 PM86 °FClear.3 mph9%29.76 "Hg10 mi
8:53 PM89 °FClear.8 mph8%29.72 "Hg10 mi
7:53 PM92 °FClear.15 mph7%29.68 "Hg10 mi
6:53 PM96 °FSunny.6 mph5%29.66 "Hg10 mi
5:53 PM98 °FSunny.6 mph5%29.67 "Hg10 mi
4:53 PM99 °FSunny.8 mph5%29.69 "Hg10 mi
3:53 PM100 °FSunny.6 mph4%29.70 "Hg10 mi
2:53 PM99 °FSunny.6 mph4%29.73 "Hg10 mi
1:53 PM98 °FSunny.13 mph6%29.77 "Hg10 mi
12:53 PM97 °FSunny.9 mph7%29.79 "Hg10 mi
11:53 AM96 °FSunny.14 mph8%29.82 "Hg10 mi
10:53 AM93 °FSunny.8 mph10%29.84 "Hg10 mi
9:53 AM90 °FSunny.12 mph11%29.86 "Hg10 mi
8:53 AM88 °FSunny.9 mph11%29.86 "Hg10 mi
7:53 AM85 °FSunny.8 mph13%29.86 "Hg10 mi
6:53 AM73 °FSunny.No wind34%29.86 "Hg10 mi
5:53 AM68 °FSunny.No wind36%29.85 "Hg10 mi
4:53 AM67 °FClear.No wind36%29.83 "Hg10 mi
3:53 AM70 °FClear.No wind31%29.82 "Hg10 mi
2:53 AM72 °FClear.No wind29%29.83 "Hg10 mi
1:53 AM72 °FClear.No wind31%29.82 "Hg10 mi
12:53 AM74 °FClear.No wind25%29.82 "Hg10 mi
Weather by CustomWeather, © 2016

See weather overviewHow to use our weather pages